Flag for Germany Weather past 2 weeks in Leutkirch im Allgäu, Baden-Württemberg, Germany

Now
53 °F

Sunny.


Feels Like: 53 °F
Forecast: 44 / 72 °F
Wind: 2 mph from Southwest

Location: Kempten

Current Time: May 7, 2015 at 9:46:18 AM

Latest Report: May 7, 2015 at 9:00 AM


Visibility: 34 mi

Pressure: 30.14 "Hg

Humidity: 64%

Dew point: 42 °F

Location of Leutkirch im AllgäuLocation

Historic Weather in Leutkirch im Allgäu — Graph

°F

Leutkirch im Allgäu temperature yesterday

Maximum temperature yesterday: 61 °F (at 6:00 PM)
Minimum temperature yesterday: 47 °F (at 12:00 PM)
Average temperature yesterday: 54 °F

Past Weeks' High & Low Weather Summary

 TemperatureHumidityPressure
High76 °F (May 5, 1:00 PM)99% (Apr 29, 6:00 AM)30.28 "Hg (Apr 29, 6:00 AM)
Low29 °F (Apr 24, 7:00 AM)18% (Apr 22, 4:00 PM)29.41 "Hg (Apr 27, 6:00 PM)
Average52 °F74%29.90 "Hg
* Reported Apr 22 9:00 AM — May 7 9:00 AM, Leutkirch im Allgäu, Weather by CustomWeather, © 2015

Note: Actual official high and low records may vary slightly from our data, if they occured in-between our weather recording intervals... More about our weather records

Advertising

Leutkirch im Allgäu weather history for previous 24 hours

 ConditionsComfort  
Time TempWeatherWind HumidityBarometerVisibility
9:00 AM
Thu, May 7
53 °FSunny.2 mph64%30.14 "Hg34 mi
8:00 AM51 °FScattered clouds.3 mph71%30.15 "Hg17 mi
7:00 AM48 °FPartly sunny.2 mph82%30.15 "Hg31 mi
6:00 AM48 °FOvercast.2 mph79%30.14 "Hg43 mi
5:00 AM49 °FOvercast.3 mph76%30.15 "Hg43 mi
4:00 AM49 °FOvercast.3 mph73%30.15 "Hg43 mi
3:00 AM50 °FOvercast.3 mph72%30.14 "Hg40 mi
2:00 AM51 °FOvercast.5 mph73%30.14 "Hg40 mi
1:00 AM51 °FOvercast.3 mph84%30.12 "Hg34 mi
12:00 AM52 °FOvercast.3 mph83%30.11 "Hg25 mi
11:00 PM
Wed, May 6
52 °FOvercast.1 mph82%30.07 "Hg34 mi
10:00 PM54 °FDrizzle. Low clouds.1 mph74%30.05 "Hg22 mi
9:00 PM53 °FOvercast.1 mph74%30.03 "Hg43 mi
8:00 PM59 °FPassing clouds.2 mph48%29.99 "Hg43 mi
7:00 PM61 °FScattered clouds.2 mph45%29.98 "Hg43 mi
6:00 PM61 °FSunny.5 mph41%29.98 "Hg16 mi
5:00 PM60 °FSunny.5 mph47%30.00 "Hg19 mi
4:00 PM59 °FPassing clouds.3 mph57%30.01 "Hg13 mi
3:00 PM54 °FOvercast.3 mph64%30.05 "Hg40 mi
2:00 PM51 °FPartly sunny.2 mph84%30.07 "Hg19 mi
1:00 PM48 °FLight rain. Overcast.3 mph86%30.10 "Hg5 mi
12:00 PM47 °FLight rain. Overcast.5 mph89%30.12 "Hg9 mi
11:00 AM48 °FLight rain. Overcast.2 mph85%30.09 "Hg14 mi
10:00 AM49 °FLight rain. Overcast.5 mph92%30.06 "Hg6 mi
9:00 AM51 °FLight freezing rain. Overcast.2 mph92%30.01 "Hg9 mi
Weather by CustomWeather, © 2015

See weather overviewHow to use our weather pages